Weather History for KMWH - February, 2013

Change the Weather History Date:

Sunday, February 3, 2013

  Actual Average Record
Temperature  
Mean Temperature 30 °F 33 °F  
Max Temperature 35 °F 40 °F - ()
Min Temperature 24 °F 26 °F - ()
Degree Days  
Heating Degree Days 35 32  
Month to date heating degree days 93 97  
Since 1 July heating degree days 3447 3771  
Cooling Degree Days 0 0  
Month to date cooling degree days 0 0  
Year to date cooling degree days 0 0  
Moisture  
Dew Point 27 °F    
Average Humidity 87    
Maximum Humidity 92    
Minimum Humidity 82    
Precipitation  
Precipitation 0.00 in 0.04 in - ()
Month to date precipitation 0.00 0.11  
Year to date precipitation 0.28 1.25  
Sea Level Pressure  
Sea Level Pressure 30.22 in    
Wind  
Wind Speed 2 mph (NNW)    
Max Wind Speed 9 mph    
Max Gust Speed 10 mph    
Visibility 8 miles    
Events      
T = Trace of Precipitation, MM = Missing Value Source: NWS Daily Summary

Daily Weather History Graph

Daily Weather History Graph

Search for Another Location

Airport or City:

Trip Planner

Search our weather history database for the weather conditions in past years. The results will help you decide how hot, cold, wet, or windy it might be!

Date:

Astronomy

Feb. 03, 2013 Rise Set
Actual Time 7:19 AM PST 5:03 PM PST
Civil Twilight 6:47 AM PST 5:35 PM PST
Nautical Twilight 6:10 AM PST 6:12 PM PST
Astronomical Twilight 5:35 AM PST 6:47 PM PST
Moon 12:54 AM PST (2/3) 10:41 AM PST (2/3)
Length of Visible Light 10h 48m
Length of Day
9h 43m
Waning Gibbous, 47% of the Moon is Illuminated
Feb 3
Waning Gibbous
Feb 9
New
Feb 17
First Quarter
Feb 25
Full
Mar 4
Last Quarter

Hourly Weather History & Observations

Time (PST) Temp. Windchill Dew Point Humidity Pressure Visibility Wind Dir Wind Speed Gust Speed Precip Events Conditions
12:52 AM 26.1 °F 21.9 °F 23.0 °F 88% 30.27 in 10.0 mi North 3.5 mph - N/A   Clear
1:52 AM 26.1 °F 18.4 °F 23.0 °F 88% 30.28 in 10.0 mi North 6.9 mph - N/A   Clear
2:52 AM 25.0 °F 19.3 °F 21.9 °F 88% 30.27 in 10.0 mi North 4.6 mph - N/A   Clear
3:52 AM 24.8 °F 19.1 °F 21.2 °F 86% 30.22 in 10.0 mi North 4.6 mph - N/A   Clear
4:52 AM 25.0 °F 18.1 °F 21.9 °F 88% 30.26 in 10.0 mi North 5.8 mph - N/A   Mostly Cloudy
5:52 AM 26.1 °F 21.9 °F 23.0 °F 88% 30.25 in 10.0 mi North 3.5 mph - N/A   Scattered Clouds
6:29 AM 26.6 °F 21.2 °F 23.0 °F 86% 30.22 in 10.0 mi North 4.6 mph - N/A   Mostly Cloudy
6:52 AM 27.0 °F - 23.0 °F 85% 30.25 in 10.0 mi Calm Calm - N/A   Mostly Cloudy
7:04 AM 26.6 °F - 24.8 °F 93% 30.20 in 10.0 mi Calm Calm - N/A   Scattered Clouds
7:43 AM 26.6 °F 22.6 °F 23.0 °F 86% 30.22 in 10.0 mi North 3.5 mph - N/A   Scattered Clouds
7:52 AM 27.0 °F 23.0 °F 24.1 °F 89% 30.27 in 10.0 mi North 3.5 mph - N/A   Mostly Cloudy
8:06 AM 28.4 °F - 24.8 °F 86% 30.22 in 10.0 mi Calm Calm - N/A   Overcast
8:48 AM 30.2 °F - 26.6 °F 86% 30.22 in 10.0 mi Calm Calm - N/A   Overcast
8:52 AM 30.0 °F - 26.1 °F 85% 30.27 in 10.0 mi Calm Calm - N/A   Overcast
9:02 AM 30.2 °F - 26.6 °F 86% 30.22 in 10.0 mi Calm Calm - N/A   Overcast
9:52 AM 30.9 °F - 27.0 °F 85% 30.27 in 10.0 mi Calm Calm - N/A   Overcast
10:52 AM 32.0 °F - 28.0 °F 85% 30.27 in 10.0 mi Calm Calm - N/A   Overcast
11:52 AM 33.1 °F - 28.9 °F 85% 30.26 in 10.0 mi Calm Calm - N/A   Overcast
12:52 PM 34.0 °F - 28.9 °F 82% 30.24 in 10.0 mi Calm Calm - N/A   Overcast
1:52 PM 35.1 °F - 30.0 °F 82% 30.21 in 9.0 mi Calm Calm - N/A   Overcast
2:52 PM 35.1 °F - 30.0 °F 82% 30.23 in 10.0 mi Calm Calm - N/A   Overcast
3:52 PM 35.1 °F - 30.0 °F 82% 30.21 in 10.0 mi Calm Calm - N/A   Overcast
4:52 PM 34.0 °F - 30.9 °F 89% 30.22 in 8.0 mi Calm Calm - N/A   Overcast
5:52 PM 34.0 °F - 30.9 °F 89% 30.21 in 8.0 mi Calm Calm - N/A   Overcast
6:52 PM 34.0 °F 31.0 °F 30.9 °F 89% 30.21 in 7.0 mi NNW 3.5 mph - N/A   Overcast
7:13 PM 33.8 °F - 30.2 °F 87% 30.15 in 3.0 mi Calm Calm - N/A   Overcast
7:20 PM 33.8 °F 28.6 °F 30.2 °F 87% 30.17 in 2.0 mi West 5.8 mph - N/A   Overcast
7:34 PM 33.8 °F - 30.2 °F 87% 30.16 in 4.0 mi Calm Calm - N/A   Overcast
7:52 PM 34.0 °F - 30.9 °F 89% 30.20 in 5.0 mi Calm Calm - N/A   Overcast
8:52 PM 34.0 °F - 30.9 °F 89% 30.19 in 4.0 mi Calm Calm - N/A   Overcast
9:52 PM 33.1 °F 30.0 °F 30.9 °F 92% 30.19 in 5.0 mi WSW 3.5 mph - N/A   Overcast
10:52 PM 33.1 °F - 30.9 °F 92% 30.17 in 3.0 mi Calm Calm - N/A   Overcast
11:02 PM 33.8 °F - 30.2 °F 87% 30.13 in 1.8 mi Calm Calm - N/A   Overcast
11:52 PM 33.1 °F - 30.9 °F 92% 30.17 in 2.5 mi Calm Calm - N/A   Overcast